Regional Weather Roundup
Issued by NWS

Home | Current Version | Previous Version | Graphics & Text | Print | Product List | Glossary On
Versions: 1 2 3 4 5 6 7 8 9 10 11 12 13 14 15 16 17 18 19 20 21 22 23 24 25 26 27 28 29 30 31 32 33 34 35 36 37 38 39 40 41 42 43 44 45 46 47 48 49 50
694
ASUS43 KMPX 180201
RWRMN
WEATHER ROUNDUP FOR MINNESOTA
NATIONAL WEATHER SERVICE TWIN CITIES/CHANHASSEN MN
800 PM CST FRI NOV 17 2017


NOTE: "FAIR" INDICATES FEW OR NO CLOUDS BELOW 12,000 FEET WITH NO
SIGNIFICANT WEATHER AND/OR OBSTRUCTIONS TO VISIBILITY. N/A MEANS
CURRENT SKY AND/OR WEATHER CONDITIONS ARE NOT AVAILABLE.

MNZ060>063-068>070-180300-
   Twin Cities Metro

CITY           SKY/WX    TMP DP  RH WIND       PRES   REMARKS
TWIN CITIES    CLOUDY    38  37  97 VRB6      29.65S
ST PAUL        CLOUDY    38  37  97 NW7       29.66F
CRYSTAL        CLOUDY    37  33  85 N8        29.65S
BLAINE         CLOUDY    37  37 100 N9        29.66R FOG
LAKEVILLE      FOG       36  36 100 N5        29.64S VSB 1
EDEN PRAIRIE   CLOUDY    38  35  89 N8        29.64S
SOUTH ST PAUL  CLOUDY    38  38 100 N3        29.65R FOG
LAKE ELMO      FOG       36  36 100 N3        29.66R VSB 3/4
$$
MNZ001>005-007-008-013>017-022>024-027-028-180300-
   Northwest Minnesota

CITY           SKY/WX    TMP DP  RH WIND       PRES   REMARKS
BEMIDJI        CLOUDY    23  18  81 NW9       29.69R WCI  13
HALLOCK        CLOUDY    16  12  86 W3        29.77R
ROSEAU         CLOUDY    18  12  79 W5        29.73R WCI  11
WARROAD        CLOUDY    19  14  79 W7        29.73R WCI  10
CROOKSTON      CLOUDY    19  18  93 NW8       29.78R WCI   9
FOSSTON        CLOUDY    19  18  93 NW6       29.72F WCI  11
DETROIT LAKES  CLOUDY    27  21  80 N8        29.71S WCI  18
MOORHEAD       CLOUDY    25  18  74 CALM      29.76R
PARK RAPIDS    CLOUDY    31  25  78 N8        29.66S WCI  23
MAHNOMEN       FAIR      23  19  84 NW7       29.72R WCI  14
$$
MNZ006-009>011-018-025>026-180300-
   North Central Minnesota

CITY           SKY/WX    TMP DP  RH WIND       PRES   REMARKS
BAUDETTE       CLOUDY    21  15  78 W6        29.70S WCI  13
FLAG ISLAND    CLOUDY    19  16  86 NW7       29.70S WCI  10
INTL FALLS     CLEAR     25  18  74 NW6       29.68S WCI  18
WASKISH        PTCLDY    23  18  80 NW3       29.71S
BIG FORK       CLOUDY    30  27  86 NW5       29.68R WCI  25
LONGVILLE      CLOUDY    32  28  86 NW5       29.67R WCI  27
GRAND RAPIDS   CLOUDY    30  28  92 NW7       29.67F WCI  23
CRANE LAKE     CLOUDY    30  28  93 CALM      29.68S
ORR            CLOUDY    30  27  86 NW5       29.64R WCI  25
COOK           CLOUDY    32  30  93 CALM      29.65F FOG
WALKER         FAIR      29  23  80 NW6       29.69R WCI  23
$$
MNZ012-019>021-037-180300-
   Northeast Minnesota

CITY           SKY/WX    TMP DP  RH WIND       PRES   REMARKS
DULUTH         CLOUDY    32  32 100 N6        29.62F FOG     WCI  26
ELY            CLOUDY    32  32 100 CALM      29.64S
HIBBING        CLOUDY    30  30 100 CALM      29.64F FOG
EVELETH        CLOUDY    32  30  93 CALM      29.65F FOG
DULUTH HARBOR  CLOUDY    34  32  93 CALM      29.67F FOG
TWO HARBORS    CLOUDY    36  30  80 NW5       29.63S HAZE
SILVER BAY     CLOUDY    34  34 100 CALM      29.63F FOG
GRAND MARAIS     N/A     36  34  92 CALM      29.65S
G MARAIS ARPRT CLOUDY    30  27  86 NW3       29.61F FOG
$$
MNZ029>031-032-039>041-046>048-054>057-064-180300-
   West Central Minnesota

CITY           SKY/WX    TMP DP  RH WIND       PRES   REMARKS
FERGUS FALLS   CLOUDY    28  21  74 N7        29.74R WCI  21
WHEATON        PTCLDY    30  25  80 N5        29.75S WCI  25
MORRIS         CLOUDY    32  27  80 NW10      29.70R WCI  24
ALEXANDRIA     CLOUDY    34  30  85 N7        29.68R WCI  28
ELBOW LAKE     CLOUDY    30  25  81 W7        29.70F WCI  23
WADENA         CLOUDY    30  27  86 N3        29.66F
GLENWOOD       CLOUDY    34  32  93 NW6       29.69R WCI  29
APPLETON       CLOUDY    36  28  75 N8        29.71S
BENSON         CLOUDY    34  30  86 N8        29.72R WCI  27
ORTONVILLE     CLOUDY    32  27  80 MISG      29.72S
MADISON        CLOUDY    37  30  75 N12       29.71F
WILLMAR        MOCLDY    36  34  93 W7        29.70R
$$
MNZ033>034-036-042>043-049>051-058-059-180300-
   Central Minnesota

CITY           SKY/WX    TMP DP  RH WIND       PRES   REMARKS
ST CLOUD       CLOUDY    33  33 100 W5        29.66S FOG     WCI  29
SAUK CENTRE    CLOUDY    32  32  99 NW3       29.68R
PAYNESVILLE    CLOUDY    34  33  99 CALM      29.67R
AITKIN         CLOUDY    28  27  93 CALM      29.65R FOG
PINE RIVER     CLOUDY    30  28  93 N3        29.71R
BRAINERD       CLOUDY    33  31  92 W3        29.68R FOG
STAPLES        CLOUDY    32  30  93 N3        29.67R
LONG PRAIRIE   MOCLDY    32  32 100 W5        29.68R FOG     WCI  27
LITTLE FALLS   CLOUDY    32  32 100 CALM      29.69R FOG
LITCHFIELD     CLOUDY    36  36 100 CALM      29.65F
BUFFALO        CLOUDY    36  33  90 NE5       29.65F FOG
MAPLE LAKE     CLOUDY    36  35  94 CALM      29.66F FOG
HUTCHINSON     CLOUDY    38  36  90 N5        29.67R
$$
MNZ037-044-045-052-053-180300-
   East Central Minnesota

CITY           SKY/WX    TMP DP  RH WIND       PRES   REMARKS
PRINCETON      CLOUDY    36  34  93 CALM      29.64F FOG
MORA             N/A     32  32 100 CALM      29.67F FOG
CAMBRIDGE      CLOUDY    36  36 100 CALM      29.65F FOG
RUSH CITY      CLOUDY    33  32  96 CALM      29.65F FOG
MOOSE LAKE     FOG       32  32 100 CALM      29.62F VSB 1/2
HINCKLEY       FAIR      32  32 100 CALM      29.65F FOG
CLOQUET        CLOUDY    32  30  93 CALM      29.63F FOG
MCGREGOR         N/A     32  32 100 CALM      29.65F
$$
MNZ071>073-080-081-089-090-097-098-180300-
   Southwest Minnesota

CITY           SKY/WX    TMP DP  RH WIND       PRES   REMARKS
MONTEVIDEO     CLOUDY    36  30  80 N12       29.69R
GRANITE FALLS  CLOUDY    37  34  90 NW8       29.70R
CANBY          CLOUDY    36  32  85 NW9       29.72R
MARSHALL       CLOUDY    35  31  85 NW7       29.70R WCI  29
REDWOOD FALLS  CLOUDY    38  32  79 N6        29.67R
OLIVIA         CLOUDY    34  32  93 N3        29.67R
PIPESTONE      CLOUDY    36  30  80 NE9       29.65S
WINDOM           N/A     37  25  60 N14       29.65R
WORTHINGTON    PTCLDY    37  33  85 N14       29.65R
JACKSON        CLOUDY    37  34  87 VRB8      29.62S
SLAYTON        MOCLDY    36  32  88 N13       29.68R
$$
MNZ065>067-074>077-082>085-091>093-180300-
   South Central Minnesota

CITY           SKY/WX    TMP DP  RH WIND       PRES   REMARKS
MANKATO        CLOUDY    38  36  92 N10       29.65R FOG
NEW ULM        CLOUDY    39  36  87 CALM      29.66R
ST JAMES       PTCLDY    37  36  93 N7        29.66R
FAIRMONT       MOCLDY    40  38  93 N12       29.62F
GLENCOE        CLOUDY    39  37  91 CALM      29.65S FOG
FARIBAULT      FOG       37  37 100 N5        29.63F VSB 1/4
OWATONNA       FOG       37  37 100 N3        29.62S VSB 1/2
WASECA         FOG       36  36 100 N6        29.64S VSB 1/2
ALBERT LEA     LGT RAIN  37  37 100 CALM      29.61R VSB 3/4
$$
MNZ078>079-086>088-094>096-180300-
   Southeast Minnesota

CITY           SKY/WX    TMP DP  RH WIND       PRES   REMARKS
ROCHESTER      FOG       37  37 100 N5        29.60S VSB 1/4
RED WING       CLOUDY    37  36  93 N5        29.63S FOG
STANTON        FOG       38  37  95 NW5       29.63S VSB 1
DODGE CENTER   FOG       36  36 100 NW3       29.61S VSB 1/2
WINONA         CLOUDY    36  36 100 CALM      29.62F FOG
AUSTIN         LGT RAIN  37  36  93 CALM      29.61R VSB 3/4
PRESTON        FOG       36  35  96 CALM      29.61R VSB 1/4
$$
ABBREVIATIONS USED IN REMARKS
   TC - TEMPERATURES IN CELSIUS
  WCI - WIND CHILL INDEX
   HX - HEAT INDEX
  VSB - VISIBILITY
$$




USA.gov is the U.S. government's official web portal to all federal, state and local government web resources and services.